SCOUT A R/B, 2967

Orbit data source: Space-Track

SCOUT A R/B, 2967 is space debris in LEO originally from a launch on Mon, 25 Sep 1967 UTC launched from the Air Force Western Test Range (AFWTR). Debris objects in space refer to the collection of defunct objects orbiting the Earth. Examples of debris include non-operational satellites, rocket bodies, and fragments generated from explosions, collisions, or faulty payload assembly.

Loading next visibility...
Identifier
2967, 1967-092B
Orbit
LEO
Country
Flag of USUS
Related business
Manufacturer
ABL
Mission
Spacecraft
Bus & Motor
ALTAIR, Unknown motor
Mass
33 kg wet, 33 kg dry
Launch date (UTC)
1967-09-25 (59 years ago)
Launch vehicle
Unknown
Launch site
Air Force Western Test Range (AFWTR)
Object type
Payload
Rocket body
Debris
Shape & HBR
Unknown
Radar Cross Section
Medium (>0.1 m² and <1 m²)

Expand to show TLE details & history
Last TLE update: 18 hours ago

TLE from 18 hours ago
0 SCOUT A R/B
1 02967U 67092B   26149.56000007  .00000101  00000-0  13374-3 0  9991
2 02967  89.2554  10.5586 0047380 153.4329 223.5446 13.52392176892412
Epoch: 2026-05-29T13:26Z
TLE epoch observation values (Epoch: 2026-05-29T13:26:24.006Z)
Latitude
16.58613°
Longitude
-77.9094°
Altitude
1,091.435 km
Speed
7.295 km/s
True Right ascension
00h 43m 07s
True Declination
16° 29' 47"
Sunlit
Object was in daylight at epoch
Visualization orbit readout
Latitude
Unknown
Longitude
Unknown
Altitude
Unknown
Speed
Unknown
Apparent Right ascension
Unknown
Apparent Declination
Unknown
Sunlit
N/A
Visualization observer readout
Local Sidereal Time
17:10:21
Azimuth
Unknown
Elevation
Unknown
Doppler factor
Unknown
Orbital elements
Apogee altitude
1,095.762 km
Perigee altitude
1,025.274 km
Semi-major axis
7,438.655 km
Eccentricity
0.00474
Inclination
89.2554°
RAAN
10.5586°
Arg. of periapsis
153.4329°
True anomaly
223.17216°
Mean anomaly
223.5446°
Eccentric anomaly
223.35822°
Mean motion
3.383 °/min
Orbital period
106.41 mins
BSTAR
0.00013374
Loading maneuver chart data...
Computing Atmospheric mass density...
Loading historical data...
Loading historical data...
Loading historical data...
Loading historical data...
Loading historical data...
Loading historical data...
Loading historical data...

Documentation

Showing up to 5 results
|